Location: Kershaw
(34.5481°N, 80.5823°W)
Time: 21:59:55
(UTC+00:00)

Tiros 1 despin weight - Pass Details

Date: 03 October 2022
Orbit: 590 x 637 km, 48.2° (Epoch: 05 December)

Event Time Altitude Azimuth Distance (km) Brightness Sun altitude
Rises 00:50:02 0° 308° (NW) 2,882 ? -22.4°
Reaches altitude 10° 00:53:12 10° 331° (NNW) 1,987 ? -23.0°
Maximum altitude 00:55:58 16° 9° (N) 1,654 ? -23.6°
Enters shadow 00:56:32 15° 18° (NNE) 1,671 ? -23.7°
